Location: Agadir Irigdalene
(31.2522°N, 8.7797°W)
Time: 16:27:52
(UTC+00:00)

Sakura Rocket - Pass Details

Date: 01 December 2020
Orbit: 476 x 1742 km, 28.7° (Epoch: 25 January)

Event Time Altitude Azimuth Distance (km) Brightness Sun altitude
Rises 17:55:04 0° 246° (WSW) 2,515 9.2 -5.3°
Reaches altitude 10° 17:57:15 10° 238° (WSW) 1,628 7.0 -5.7°
Maximum altitude 18:00:40 41° 167° (SSE) 718 3.5 -6.4°
Drops below altitude 10° 18:04:27 10° 96° (E) 1,806 4.9 -7.2°
Enters shadow 18:05:11 - 93° (E) 2,101 5.2 -7.3°
